Location: Lugrin
(46.4033°N, 6.6674°E)
Time: 17:06:04
(UTC+00:00)

Cosmos 2263 Rocket - Pass Details

Date: 18 September 2020
Orbit: 822 x 850 km, 71.0° (Epoch: 30 October)

Event Time Altitude Azimuth Distance (km) Brightness Sun altitude
Rises 19:31:09 0° 234° (SW) 3,349 5.7 -19.7°
Reaches altitude 10° 19:33:48 10° 244° (WSW) 2,422 5.1 -20.1°
Maximum altitude 19:38:46 33° 308° (NW) 1,365 3.9 -20.9°
Drops below altitude 10° 19:43:48 10° 12° (NNE) 2,446 4.8 -21.6°
Sets 19:46:31 0° 22° (NNE) 3,388 5.4 -22.0°
